Location: Lombard
(41.8800°N, 88.0080°W)
Time: 20:12:25
(UTC-05:00)

ZACube-1 - Pass Details

Date: 20 May 2022
Orbit: 581 x 662 km, 97.6° (Epoch: 29 June)

Event Time Altitude Azimuth Distance (km) Brightness Sun altitude
Rises 04:00:44 0° 27° (NNE) 2,816 ? -13.8°
Reaches altitude 10° 04:03:19 10° 42° (NE) 1,907 ? -13.5°
Maximum altitude 04:06:32 22° 94° (E) 1,294 ? -13.1°
Drops below altitude 10° 04:09:44 10° 146° (SE) 1,895 ? -12.6°
Sets 04:12:17 0° 162° (SSE) 2,794 ? -12.3°
